When you browse on this site, cookies collect data to enhance your experience and personalize the content and advertising you see.
Visit our Privacy Policy to learn more. By continuing to use the site, you agree to this use of cookies and data.
  • în România
  • Lista ţărilor
  • Pe 7 zile
  • Temperatura apei
  • Meteo pe hartă
  • Widget-uri
  • user-avatar
    Intrare

    Meteo pe oră la Plymouth

    Astăzi, 6 Aprilie, Luni

    Timp Temperatura Precipitaţii Vânt Presiune Umiditate
    00:00 +11°C° 0 mm 7 m/s 754 mmHg 96%
    01:00 +10°C° 0 mm 6 m/s 754 mmHg 96%
    02:00 +9°C° 0 mm 5 m/s 755 mmHg 96%
    03:00 +10°C° 0 mm 4 m/s 755 mmHg 96%
    04:00 +8°C° 0 mm 4 m/s 756 mmHg 96%
    05:00 +7°C° 0 mm 4 m/s 756 mmHg 95%
    06:00 +6°C° 0 mm 4 m/s 757 mmHg 94%
    07:00 +7°C° 0 mm 4 m/s 758 mmHg 89%
    08:00 +10°C° 0 mm 4 m/s 759 mmHg 84%
    09:00 +10°C° 0 mm 5 m/s 760 mmHg 79%
    10:00 +12°C° 0 mm 5 m/s 761 mmHg 74%
    11:00 +13°C° 0 mm 5 m/s 762 mmHg 69%
    12:00 +13°C° 0 mm 5 m/s 763 mmHg 64%
    13:00 +13°C° 0 mm 5 m/s 763 mmHg 66%
    14:00 +13°C° 0 mm 4 m/s 764 mmHg 67%
    15:00 +13°C° 0 mm 4 m/s 764 mmHg 69%
    16:00 +12°C° 0 mm 4 m/s 765 mmHg 73%
    17:00 +11°C° 0 mm 3 m/s 765 mmHg 77%
    18:00 +10°C° 0 mm 3 m/s 766 mmHg 80%
    19:00 +9°C° 0 mm 2 m/s 766 mmHg 82%
    20:00 +7°C° 0 mm 2 m/s 767 mmHg 84%
    21:00 +6°C° 0 mm 2 m/s 768 mmHg 86%
    22:00 +5°C° 0 mm 2 m/s 768 mmHg 85%
    23:00 +5°C° 0 mm 2 m/s 768 mmHg 84%

    Mâine, 7 Aprilie, Marţi

    Timp Temperatura Precipitaţii Vânt Presiune Umiditate
    00:00 +5°C° 0 mm 2 m/s 768 mmHg 83%
    01:00 +5°C° 0 mm 2 m/s 769 mmHg 83%
    02:00 +5°C° 0 mm 2 m/s 769 mmHg 83%
    03:00 +4°C° 0 mm 3 m/s 769 mmHg 83%
    04:00 +4°C° 0 mm 3 m/s 769 mmHg 84%
    05:00 +4°C° 0 mm 3 m/s 769 mmHg 85%
    06:00 +4°C° 0 mm 3 m/s 769 mmHg 86%
    07:00 +6°C° 0 mm 4 m/s 769 mmHg 83%
    08:00 +8°C° 0 mm 4 m/s 769 mmHg 80%
    09:00 +10°C° 0 mm 4 m/s 769 mmHg 76%
    10:00 +12°C° 0 mm 5 m/s 769 mmHg 74%
    11:00 +13°C° 0 mm 5 m/s 769 mmHg 73%
    12:00 +14°C° 0 mm 5 m/s 769 mmHg 71%
    13:00 +14°C° 0 mm 5 m/s 769 mmHg 70%
    14:00 +14°C° 0 mm 5 m/s 768 mmHg 68%
    15:00 +14°C° 0 mm 5 m/s 768 mmHg 67%
    16:00 +13°C° 0 mm 5 m/s 768 mmHg 71%
    17:00 +12°C° 0 mm 5 m/s 767 mmHg 75%
    18:00 +11°C° 0 mm 4 m/s 767 mmHg 80%
    19:00 +10°C° 0 mm 4 m/s 767 mmHg 82%
    20:00 +8°C° 0 mm 4 m/s 768 mmHg 84%
    21:00 +7°C° 0 mm 4 m/s 768 mmHg 87%
    22:00 +8°C° 0 mm 3 m/s 768 mmHg 88%
    23:00 +8°C° 0 mm 3 m/s 767 mmHg 89%

    Poimâine, 8 Aprilie, Miercuri

    Timp Temperatura Precipitaţii Vânt Presiune Umiditate
    00:00 +9°C° 0 mm 3 m/s 767 mmHg 91%
    01:00 +9°C° 0 mm 2 m/s 767 mmHg 91%
    02:00 +9°C° 0 mm 2 m/s 767 mmHg 91%
    03:00 +9°C° 0 mm 2 m/s 766 mmHg 91%
    04:00 +9°C° 0 mm 2 m/s 766 mmHg 91%
    05:00 +9°C° 0 mm 2 m/s 766 mmHg 91%
    06:00 +9°C° 0 mm 2 m/s 766 mmHg 90%
    07:00 +11°C° 0 mm 3 m/s 766 mmHg 86%
    08:00 +13°C° 0 mm 3 m/s 766 mmHg 82%
    09:00 +16°C° 0 mm 3 m/s 766 mmHg 77%
    10:00 +17°C° 0 mm 3 m/s 766 mmHg 76%
    11:00 +17°C° 0 mm 4 m/s 766 mmHg 76%
    12:00 +18°C° 0 mm 4 m/s 766 mmHg 75%
    13:00 +18°C° 0.1 mm 4 m/s 766 mmHg 76%
    14:00 +18°C° 0.1 mm 4 m/s 765 mmHg 76%
    15:00 +18°C° 0.1 mm 3 m/s 765 mmHg 77%
    16:00 +17°C° 0 mm 3 m/s 765 mmHg 81%
    17:00 +16°C° 0 mm 2 m/s 765 mmHg 84%
    18:00 +15°C° 0 mm 2 m/s 765 mmHg 88%
    19:00 +14°C° 0 mm 2 m/s 765 mmHg 89%
    20:00 +13°C° 0 mm 2 m/s 765 mmHg 90%
    21:00 +12°C° 0 mm 2 m/s 765 mmHg 91%
    22:00 +10°C° 0 mm 2 m/s 765 mmHg 91%
    23:00 +10°C° 0 mm 2 m/s 765 mmHg 90%

    9 Aprilie, Joi

    Timp Temperatura Precipitaţii Vânt Presiune Umiditate
    00:00 +10°C° 0 mm 2 m/s 765 mmHg 90%
    01:00 +10°C° 0 mm 2 m/s 765 mmHg 89%
    02:00 +12°C° 0 mm 2 m/s 764 mmHg 88%
    03:00 +11°C° 0 mm 3 m/s 764 mmHg 86%
    04:00 +11°C° 0 mm 3 m/s 764 mmHg 87%
    05:00 +11°C° 0 mm 3 m/s 764 mmHg 87%
    06:00 +11°C° 0 mm 4 m/s 764 mmHg 88%
    07:00 +12°C° 0 mm 4 m/s 764 mmHg 86%
    08:00 +13°C° 0 mm 4 m/s 764 mmHg 85%
    09:00 +14°C° 0 mm 4 m/s 764 mmHg 84%
    10:00 +15°C° 0 mm 4 m/s 764 mmHg 83%
    11:00 +15°C° 0 mm 4 m/s 764 mmHg 83%
    12:00 +17°C° 0 mm 4 m/s 764 mmHg 82%
    13:00 +17°C° 0 mm 3 m/s 764 mmHg 82%
    14:00 +17°C° 0 mm 3 m/s 764 mmHg 81%
    15:00 +17°C° 0 mm 3 m/s 763 mmHg 81%
    16:00 +16°C° 0.3 mm 3 m/s 763 mmHg 85%
    17:00 +15°C° 0.3 mm 2 m/s 763 mmHg 90%
    18:00 +13°C° 0.3 mm 2 m/s 763 mmHg 94%
    19:00 +13°C° 0.1 mm 2 m/s 763 mmHg 94%
    20:00 +13°C° 0.1 mm 2 m/s 763 mmHg 95%
    21:00 +13°C° 0.1 mm 2 m/s 763 mmHg 95%
    22:00 +13°C° 0.2 mm 2 m/s 763 mmHg 95%
    23:00 +13°C° 0.2 mm 2 m/s 763 mmHg 96%

    10 Aprilie, Vineri

    Timp Temperatura Precipitaţii Vânt Presiune Umiditate
    00:00 +13°C° 0.2 mm 2 m/s 763 mmHg 97%
    01:00 +13°C° 0.2 mm 1 m/s 763 mmHg 97%
    02:00 +13°C° 0.2 mm 1 m/s 762 mmHg 97%
    03:00 +13°C° 0.2 mm 1 m/s 762 mmHg 97%
    04:00 +13°C° 0 mm 1 m/s 762 mmHg 97%
    05:00 +12°C° 0 mm 1 m/s 762 mmHg 97%
    06:00 +12°C° 0 mm 1 m/s 762 mmHg 97%
    07:00 +13°C° 0 mm 1 m/s 762 mmHg 95%
    08:00 +14°C° 0 mm 1 m/s 762 mmHg 93%
    09:00 +15°C° 0 mm 1 m/s 762 mmHg 92%
    10:00 +16°C° 0 mm 1 m/s 762 mmHg 90%
    11:00 +16°C° 0 mm 1 m/s 762 mmHg 88%
    12:00 +17°C° 0 mm 2 m/s 762 mmHg 87%
    13:00 +17°C° 0.3 mm 2 m/s 762 mmHg 89%
    14:00 +16°C° 0.3 mm 2 m/s 761 mmHg 91%
    15:00 +16°C° 0.3 mm 2 m/s 761 mmHg 93%
    16:00 +15°C° 0.2 mm 2 m/s 761 mmHg 94%
    17:00 +15°C° 0.2 mm 2 m/s 761 mmHg 95%
    18:00 +13°C° 0.2 mm 3 m/s 761 mmHg 97%
    19:00 +13°C° 0 mm 3 m/s 761 mmHg 97%
    20:00 +12°C° 0 mm 3 m/s 761 mmHg 97%
    21:00 +12°C° 0 mm 4 m/s 762 mmHg 97%
    22:00 +12°C° 0 mm 4 m/s 762 mmHg 97%
    23:00 +11°C° 0 mm 4 m/s 762 mmHg 97%

    11 Aprilie, Sâmbătă

    Timp Temperatura Precipitaţii Vânt Presiune Umiditate
    00:00 +11°C° 0 mm 4 m/s 762 mmHg 97%
    01:00 +10°C° 0 mm 5 m/s 762 mmHg 96%
    02:00 +9°C° 0 mm 5 m/s 762 mmHg 95%
    03:00 +9°C° 0 mm 6 m/s 762 mmHg 94%
    04:00 +8°C° 0 mm 6 m/s 762 mmHg 93%
    05:00 +8°C° 0 mm 6 m/s 763 mmHg 92%
    06:00 +7°C° 0 mm 6 m/s 763 mmHg 91%
    07:00 +8°C° 0 mm 7 m/s 763 mmHg 88%
    08:00 +8°C° 0 mm 7 m/s 763 mmHg 84%
    09:00 +8°C° 0 mm 7 m/s 764 mmHg 81%
    10:00 +8°C° 0 mm 7 m/s 764 mmHg 79%
    11:00 +9°C° 0 mm 7 m/s 764 mmHg 77%
    12:00 +9°C° 0 mm 7 m/s 764 mmHg 75%
    13:00 +9°C° 0 mm 7 m/s 764 mmHg 75%
    14:00 +9°C° 0 mm 7 m/s 765 mmHg 76%
    15:00 +9°C° 0 mm 7 m/s 765 mmHg 76%
    16:00 +9°C° 0 mm 7 m/s 765 mmHg 78%
    17:00 +9°C° 0 mm 7 m/s 765 mmHg 80%
    18:00 +8°C° 0 mm 7 m/s 765 mmHg 82%
    19:00 +8°C° 0 mm 6 m/s 765 mmHg 83%
    20:00 +9°C° 0 mm 6 m/s 766 mmHg 83%
    21:00 +9°C° 0 mm 6 m/s 766 mmHg 83%
    22:00 +9°C° 0 mm 6 m/s 766 mmHg 85%
    23:00 +9°C° 0 mm 6 m/s 766 mmHg 86%
    Arată mai mult